This is the latest recevied weather packets stored in our database for station/object VU3IZK-13. If no packets are shown the sender has not sent any weather packets the latest 10 day(s).
| Time | Temp. | Humidity | Pressure | Rain* | Wind** | Luminosity | Snow |
|---|---|---|---|---|---|---|---|
| 1777518011 | 27.78° C | 37% | 0 hPa | 0 mm | - | - | - |
| 1777517107 | 26.67° C | 40% | 0 hPa | 0 mm | - | - | - |
| 1777516230 | 25.56° C | 47% | 0 hPa | 0 mm | - | - | - |
| 1777515327 | 25° C | 52% | 0 hPa | 0 mm | - | - | - |
| 1777514444 | 24.44° C | 52% | 0 hPa | 0 mm | - | - | - |
| 1777513521 | 23.89° C | 51% | 0 hPa | 0 mm | - | - | - |
| 1777512662 | 23.33° C | 50% | 0 hPa | 0 mm | - | - | - |
| 1777511737 | 22.78° C | 57% | 0 hPa | 0 mm | - | - | - |
| 1777510815 | 21.67° C | 64% | 0 hPa | 0 mm | - | - | - |
| 1777509915 | 21.67° C | 61% | 0 hPa | 0 mm | - | - | - |
| 1777509039 | 21.11° C | 66% | 0 hPa | 0 mm | - | - | - |
| 1777508139 | 21.67° C | 65% | 0 hPa | 0 mm | - | - | - |
| 1777507217 | 21.67° C | 71% | 0 hPa | 0 mm | - | - | - |
| 1777506318 | 21.11° C | 66% | 0 hPa | 0 mm | - | - | - |
| 1777505441 | 21.11° C | 72% | 0 hPa | 0 mm | - | - | - |
| 1777504542 | 20.56° C | 76% | 0 hPa | 0 mm | - | - | - |
| 1777503621 | 20.56° C | 75% | 0 hPa | 0 mm | - | - | - |
| 1777502721 | 20.56° C | 78% | 0 hPa | 0 mm | - | - | - |
| 1777501844 | 21.11° C | 78% | 0 hPa | 0 mm | - | - | - |
| 1777500944 | 21.11° C | 78% | 0 hPa | 0 mm | - | - | - |
| 1777500023 | 21.11° C | 77% | 0 hPa | 0 mm | - | - | - |
| 1777499104 | 21.11° C | 77% | 0 hPa | 0 mm | - | - | - |
| 1777498242 | 21.67° C | 75% | 0 hPa | 0 mm | - | - | - |
| 1777497322 | 21.67° C | 76% | 0 hPa | 0 mm | - | - | - |
| 1777496422 | 21.67° C | 77% | 0 hPa | 0 mm | - | - | - |
* Rain latest hour (hover to see other rain measurements)
** Current wind speed in m/s (hover to see current wind gust speed)